Location: Newark
(21.1200°N, 73.4000°E)
Time: 21:40:22
(UTC+00:00)

Explorer 11/Cluster Stage 4 - Pass Details

Date: 28 January 2020
Orbit: 467 x 1259 km, 28.8° (Epoch: 19 February)

Event Time Altitude Azimuth Distance (km) Brightness Sun altitude
Rises 06:01:52 0° 238° (WSW) 3,787 10.1 46.2°
Reaches altitude 10° 06:04:27 10° 236° (SW) 2,932 9.7 46.5°
Maximum altitude 06:11:51 69° 154° (SSE) 1,276 9.3 47.2°
Drops below altitude 10° 06:20:04 10° 73° (ENE) 3,231 9.9 48.0°
Sets 06:23:02 0° 71° (ENE) 4,193 10.3 48.2°
